| time (UTC) | temp F | wind direction | speed MPH | gust MPH | rain 1hr in | rain 24hr in | rain mn in | humidity % | barometer mb |
| 20260506170912 | 57 | 44 | 2.0 | 2.0 | 0.00 | 0.01 | 0.01 | 36 | 1018.6 |
| 20260506170407 | 56 | 126 | 0.0 | 1.0 | 0.00 | 0.01 | 0.01 | 38 | 1018.5 |
| 20260506165901 | 56 | 110 | 1.0 | 1.0 | 0.00 | 0.01 | 0.01 | 38 | 1018.7 |
| 20260506165359 | 56 | 119 | 1.0 | 2.0 | 0.00 | 0.01 | 0.01 | 37 | 1018.3 |
| 20260506164855 | 56 | 109 | 0.0 | 0.0 | 0.00 | 0.01 | 0.01 | 39 | 1018.7 |
| 20260506164351 | 56 | 90 | 0.0 | 1.0 | 0.00 | 0.01 | 0.01 | 39 | 1018.5 |
| 20260506163849 | 56 | 110 | 0.0 | 1.0 | 0.00 | 0.01 | 0.01 | 39 | 1018.7 |
| 20260506163343 | 56 | 153 | 0.0 | 0.0 | 0.00 | 0.01 | 0.01 | 40 | 1018.5 |
| 20260506162839 | 56 | 84 | 0.0 | 1.0 | 0.00 | 0.01 | 0.01 | 40 | 1018.3 |
| 20260506162337 | 56 | 170 | 0.0 | 0.0 | 0.00 | 0.01 | 0.01 | 41 | 1018.5 |
| 20260506161834 | 56 | 120 | 0.0 | 1.0 | 0.00 | 0.01 | 0.01 | 39 | 1018.4 |
| 20260506161332 | 56 | 84 | 2.0 | 3.0 | 0.00 | 0.01 | 0.01 | 41 | 1018.3 |
| 20260506160829 | 56 | 149 | 0.0 | 0.0 | 0.00 | 0.01 | 0.01 | 42 | 1018.5 |
| 20260506160325 | 57 | 57 | 1.0 | 1.0 | 0.00 | 0.01 | 0.01 | 38 | 1018.2 |
| 20260506155824 | 56 | 267 | 1.0 | 1.0 | 0.00 | 0.01 | 0.01 | 40 | 1018.2 |
| 20260506155320 | 56 | 116 | 0.0 | 1.0 | 0.00 | 0.01 | 0.01 | 39 | 1018.0 |
| 20260506153433 | 56 | 103 | 1.0 | 3.0 | 0.00 | 0.01 | 0.01 | 37 | 1018.0 |
| 20260506152931 | 56 | 38 | 1.0 | 2.0 | 0.00 | 0.01 | 0.01 | 38 | 1017.8 |
| 20260506152427 | 56 | 163 | 2.0 | 3.0 | 0.00 | 0.01 | 0.01 | 38 | 1017.8 |
| 20260506151926 | 56 | 70 | 2.0 | 2.0 | 0.00 | 0.01 | 0.01 | 40 | 1017.8 |
| 20260506151422 | 56 | 61 | 4.0 | 5.0 | 0.00 | 0.01 | 0.01 | 44 | 1018.0 |
| 20260506150920 | 56 | 275 | 1.0 | 2.0 | 0.00 | 0.01 | 0.01 | 44 | 1018.0 |
| 20260506150416 | 56 | 335 | 2.0 | 3.0 | 0.00 | 0.01 | 0.01 | 45 | 1018.2 |
| 20260506145913 | 56 | 120 | 1.0 | 1.0 | 0.00 | 0.01 | 0.01 | 45 | 1018.1 |
| 20260506145409 | 55 | 121 | 1.0 | 1.0 | 0.00 | 0.01 | 0.01 | 47 | 1018.0 |
| 20260506144907 | 55 | 159 | 2.0 | 5.0 | 0.00 | 0.01 | 0.01 | 47 | 1018.1 |
| 20260506144403 | 56 | 114 | 1.0 | 1.0 | 0.00 | 0.01 | 0.01 | 47 | 1018.0 |
| 20260506143902 | 55 | 131 | 1.0 | 2.0 | 0.00 | 0.01 | 0.01 | 51 | 1018.0 |
| 20260506143358 | 55 | 103 | 1.0 | 2.0 | 0.00 | 0.01 | 0.01 | 54 | 1017.9 |
| 20260506142857 | 54 | 157 | 1.0 | 1.0 | 0.00 | 0.01 | 0.01 | 53 | 1017.8 |
| 20260506142354 | 53 | 128 | 0.0 | 1.0 | 0.00 | 0.01 | 0.01 | 55 | 1017.9 |
| 20260506141852 | 52 | 95 | 1.0 | 2.0 | 0.00 | 0.01 | 0.01 | 57 | 1018.0 |
| 20260506141350 | 52 | 65 | 2.0 | 2.0 | 0.00 | 0.01 | 0.01 | 55 | 1017.7 |
| 20260506140848 | 52 | 123 | 0.0 | 1.0 | 0.00 | 0.01 | 0.01 | 57 | 1017.8 |
| 20260506140344 | 52 | 107 | 1.0 | 2.0 | 0.00 | 0.01 | 0.01 | 58 | 1017.6 |
| 20260506135842 | 52 | 1 | 2.0 | 3.0 | 0.00 | 0.01 | 0.01 | 60 | 1017.7 |
| 20260506135338 | 51 | 200 | 1.0 | 1.0 | 0.00 | 0.01 | 0.01 | 64 | 1017.2 |
| 20260506134834 | 51 | 85 | 2.0 | 2.0 | 0.00 | 0.01 | 0.01 | 66 | 1017.4 |
| 20260506134331 | 51 | 95 | 0.0 | 0.0 | 0.00 | 0.01 | 0.01 | 66 | 1017.4 |
| 20260506133828 | 50 | 82 | 1.0 | 1.0 | 0.00 | 0.01 | 0.01 | 68 | 1017.3 |
| 20260506133325 | 50 | 157 | 1.0 | 1.0 | 0.00 | 0.01 | 0.01 | 71 | 1017.5 |
| 20260506132822 | 50 | 67 | 1.0 | 1.0 | 0.00 | 0.01 | 0.01 | 70 | 1017.4 |
| 20260506132319 | 50 | 109 | 1.0 | 1.0 | 0.00 | 0.01 | 0.01 | 75 | 1017.2 |
| 20260506131817 | 49 | 126 | 1.0 | 1.0 | 0.00 | 0.01 | 0.01 | 79 | 1017.1 |
| 20260506131313 | 49 | 168 | 0.0 | 1.0 | 0.00 | 0.01 | 0.01 | 82 | 1017.1 |
| 20260506130810 | 49 | 143 | 0.0 | 0.0 | 0.00 | 0.01 | 0.01 | 83 | 1017.1 |
| 20260506130306 | 49 | 165 | 0.0 | 0.0 | 0.00 | 0.01 | 0.01 | 84 | 1016.7 |
| 20260506125804 | 49 | 162 | 0.0 | 0.0 | 0.00 | 0.01 | 0.01 | 83 | 1016.9 |
| 20260506125305 | 49 | 157 | 0.0 | 0.0 | 0.00 | 0.01 | 0.01 | 86 | 1017.0 |
| 20260506124801 | 48 | 173 | 0.0 | 1.0 | 0.00 | 0.01 | 0.01 | 87 | 1016.7 |
| 20260506124257 | 48 | 163 | 0.0 | 0.0 | 0.00 | 0.01 | 0.01 | 88 | 1016.8 |
| 20260506123755 | 48 | 172 | 1.0 | 1.0 | 0.00 | 0.01 | 0.01 | 90 | 1017.0 |
| 20260506123254 | 47 | 149 | 0.0 | 0.0 | 0.00 | 0.01 | 0.01 | 91 | 1016.5 |
| 20260506122750 | 47 | 149 | 0.0 | 0.0 | 0.00 | 0.01 | 0.01 | 92 | 1016.6 |
| 20260506122247 | 47 | 149 | 0.0 | 0.0 | 0.00 | 0.01 | 0.01 | 92 | 1016.5 |
| 20260506121745 | 47 | 149 | 0.0 | 0.0 | 0.00 | 0.01 | 0.01 | 92 | 1016.4 |
| 20260506121242 | 46 | 149 | 0.0 | 0.0 | 0.00 | 0.01 | 0.01 | 92 | 1016.3 |
| 20260506120739 | 46 | 153 | 0.0 | 0.0 | 0.00 | 0.01 | 0.01 | 92 | 1016.1 |
| 20260506120237 | 46 | 153 | 0.0 | 0.0 | 0.00 | 0.01 | 0.01 | 91 | 1016.1 |
| 20260506115734 | 46 | 153 | 0.0 | 0.0 | 0.00 | 0.01 | 0.01 | 91 | 1016.1 |
| 20260506115232 | 46 | 152 | 0.0 | 0.0 | 0.00 | 0.01 | 0.01 | 91 | 1016.0 |
| 20260506114724 | 46 | 152 | 0.0 | 0.0 | 0.00 | 0.01 | 0.01 | 90 | 1015.9 |
| 20260506114222 | 46 | 152 | 0.0 | 0.0 | 0.00 | 0.01 | 0.01 | 90 | 1015.9 |
| 20260506113720 | 46 | 158 | 0.0 | 0.0 | 0.00 | 0.01 | 0.01 | 89 | 1015.8 |
| 20260506113217 | 46 | 149 | 0.0 | 0.0 | 0.00 | 0.01 | 0.01 | 89 | 1015.6 |
| 20260506112713 | 46 | 173 | 0.0 | 0.0 | 0.00 | 0.01 | 0.01 | 89 | 1015.8 |
| 20260506112211 | 46 | 187 | 1.0 | 2.0 | 0.00 | 0.01 | 0.01 | 89 | 1015.7 |
| 20260506111708 | 46 | 198 | 2.0 | 2.0 | 0.00 | 0.01 | 0.01 | 89 | 1015.8 |
| 20260506111206 | 46 | 169 | 0.0 | 0.0 | 0.00 | 0.01 | 0.01 | 89 | 1016.3 |
| 20260506110703 | 46 | 168 | 0.0 | 0.0 | 0.00 | 0.01 | 0.01 | 89 | 1016.4 |
| 20260506110200 | 46 | 144 | 0.0 | 0.0 | 0.00 | 0.01 | 0.01 | 89 | 1016.5 |
| 20260506105657 | 46 | 185 | 1.0 | 2.0 | 0.00 | 0.01 | 0.01 | 90 | 1016.1 |
| 20260506105154 | 46 | 168 | 0.0 | 0.0 | 0.00 | 0.01 | 0.01 | 90 | 1016.2 |
| 20260506104652 | 46 | 163 | 0.0 | 0.0 | 0.00 | 0.01 | 0.01 | 91 | 1016.2 |
| 20260506104150 | 46 | 181 | 0.0 | 0.0 | 0.00 | 0.01 | 0.01 | 93 | 1015.8 |
| 20260506103646 | 46 | 158 | 0.0 | 0.0 | 0.00 | 0.01 | 0.01 | 93 | 1016.3 |
| 20260506103143 | 46 | 158 | 0.0 | 0.0 | 0.00 | 0.01 | 0.01 | 94 | 1016.3 |
| 20260506102642 | 46 | 169 | 0.0 | 0.0 | 0.00 | 0.01 | 0.01 | 94 | 1016.2 |
| 20260506102138 | 46 | 193 | 0.0 | 0.0 | 0.00 | 0.01 | 0.01 | 94 | 1015.8 |
| 20260506101635 | 46 | 148 | 0.0 | 0.0 | 0.00 | 0.01 | 0.01 | 94 | 1015.5 |
| 20260506101132 | 46 | 148 | 0.0 | 0.0 | 0.00 | 0.01 | 0.01 | 94 | 1015.3 |
| 20260506100631 | 46 | 148 | 0.0 | 0.0 | 0.00 | 0.01 | 0.01 | 94 | 1014.8 |
| 20260506100128 | 46 | 147 | 0.0 | 0.0 | 0.00 | 0.01 | 0.01 | 94 | 1015.0 |
| 20260506095627 | 46 | 147 | 0.0 | 0.0 | 0.00 | 0.01 | 0.01 | 94 | 1015.1 |
| 20260506095123 | 46 | 147 | 0.0 | 0.0 | 0.00 | 0.01 | 0.01 | 93 | 1015.0 |
| 20260506094620 | 46 | 146 | 0.0 | 0.0 | 0.00 | 0.01 | 0.01 | 93 | 1015.1 |
| 20260506094118 | 46 | 154 | 0.0 | 0.0 | 0.00 | 0.01 | 0.01 | 93 | 1014.9 |
| 20260506093616 | 46 | 153 | 0.0 | 0.0 | 0.00 | 0.01 | 0.01 | 93 | 1014.4 |
| 20260506093113 | 46 | 136 | 0.0 | 0.0 | 0.00 | 0.01 | 0.01 | 93 | 1014.8 |
| 20260506092611 | 46 | 166 | 0.0 | 0.0 | 0.00 | 0.01 | 0.01 | 92 | 1014.8 |
| 20260506092107 | 46 | 166 | 0.0 | 0.0 | 0.00 | 0.01 | 0.01 | 92 | 1014.9 |
| 20260506091606 | 46 | 166 | 0.0 | 0.0 | 0.00 | 0.01 | 0.01 | 92 | 1015.1 |
| 20260506091103 | 46 | 166 | 0.0 | 0.0 | 0.00 | 0.01 | 0.01 | 92 | 1015.1 |
| 20260506090601 | 46 | 167 | 0.0 | 0.0 | 0.00 | 0.01 | 0.01 | 92 | 1015.0 |
| 20260506090057 | 46 | 166 | 0.0 | 0.0 | 0.00 | 0.01 | 0.01 | 92 | 1014.8 |
| 20260506085554 | 46 | 167 | 0.0 | 0.0 | 0.00 | 0.01 | 0.01 | 92 | 1014.9 |
| 20260506085050 | 46 | 154 | 0.0 | 0.0 | 0.00 | 0.01 | 0.01 | 92 | 1014.8 |
| 20260506084547 | 46 | 157 | 0.0 | 0.0 | 0.00 | 0.01 | 0.01 | 92 | 1015.1 |
| 20260506084043 | 46 | 157 | 0.0 | 0.0 | 0.00 | 0.01 | 0.01 | 92 | 1014.8 |
| 20260506083541 | 46 | 166 | 0.0 | 0.0 | 0.00 | 0.01 | 0.01 | 92 | 1014.9 |
| 20260506083038 | 46 | 164 | 0.0 | 0.0 | 0.00 | 0.01 | 0.01 | 92 | 1015.1 |
| 20260506082535 | 46 | 161 | 0.0 | 0.0 | 0.00 | 0.01 | 0.01 | 92 | 1014.9 |
| 20260506082030 | 46 | 161 | 0.0 | 0.0 | 0.00 | 0.01 | 0.01 | 92 | 1014.2 |
| 20260506081529 | 46 | 161 | 0.0 | 0.0 | 0.00 | 0.01 | 0.01 | 92 | 1014.1 |
| 20260506081026 | 46 | 165 | 0.0 | 0.0 | 0.00 | 0.01 | 0.01 | 92 | 1014.0 |
| 20260506080524 | 46 | 159 | 0.0 | 0.0 | 0.00 | 0.01 | 0.01 | 92 | 1013.9 |
| 20260506073507 | 46 | 162 | 0.0 | 0.0 | 0.00 | 0.01 | 0.01 | 90 | 1013.9 |
| 20260506073004 | 46 | 161 | 0.0 | 0.0 | 0.00 | 0.01 | 0.01 | 90 | 1013.8 |
| 20260506072501 | 46 | 162 | 0.0 | 0.0 | 0.00 | 0.01 | 0.01 | 90 | 1014.1 |
| 20260506071959 | 46 | 161 | 0.0 | 0.0 | 0.00 | 0.01 | 0.01 | 89 | 1014.0 |
| 20260506071456 | 46 | 161 | 0.0 | 0.0 | 0.00 | 0.01 | 0.01 | 89 | 1014.2 |
| 20260506070953 | 46 | 162 | 0.0 | 0.0 | 0.00 | 0.01 | 0.01 | 89 | 1014.2 |
| 20260506070450 | 47 | 158 | 0.0 | 0.0 | 0.00 | 0.01 | 0.01 | 87 | 1014.5 |
| 20260506062428 | 47 | 134 | 0.0 | 0.0 | 0.00 | 0.01 | 0.01 | 78 | 1015.2 |
| 20260506061924 | 47 | 164 | 0.0 | 0.0 | 0.00 | 0.01 | 0.01 | 78 | 1015.3 |
| 20260506061420 | 48 | 113 | 0.0 | 1.0 | 0.00 | 0.01 | 0.01 | 77 | 1015.4 |
| 20260506060918 | 48 | 129 | 1.0 | 1.0 | 0.00 | 0.01 | 0.01 | 77 | 1015.1 |
| 20260506060416 | 48 | 149 | 0.0 | 0.0 | 0.07 | 0.01 | 0.01 | 76 | 1015.0 |
| 20260506051348 | 49 | 132 | 0.0 | 0.0 | 0.00 | 0.00 | 0.00 | 74 | 1014.4 |
| 20260506050845 | 49 | 128 | 0.0 | 1.0 | 0.00 | 0.00 | 0.00 | 74 | 1014.6 |
| 20260506050343 | 49 | 126 | 0.0 | 1.0 | 0.00 | 0.00 | 0.00 | 72 | 1014.3 |
| 20260506044833 | 50 | 20 | 5.0 | 7.0 | 0.00 | 1.02 | 1.02 | 72 | 1014.1 |
| 20260506044331 | 49 | 338 | 3.0 | 3.0 | 0.00 | 1.02 | 1.02 | 84 | 1014.4 |
| 20260506043828 | 49 | 120 | 3.0 | 5.0 | 0.00 | 1.02 | 1.02 | 93 | 1014.1 |
| 20260506043325 | 49 | 165 | 2.0 | 2.0 | 0.00 | 1.02 | 1.02 | 95 | 1014.2 |
| 20260506042823 | 49 | 141 | 0.0 | 0.0 | 0.00 | 1.02 | 1.02 | 95 | 1013.8 |
| 20260506042322 | 49 | 141 | 0.0 | 0.0 | 0.00 | 1.02 | 1.02 | 95 | 1013.6 |
| 20260506041821 | 49 | 141 | 0.0 | 0.0 | 0.00 | 1.02 | 1.02 | 95 | 1013.3 |
| 20260506041317 | 49 | 141 | 0.0 | 0.0 | 0.00 | 1.02 | 1.02 | 95 | 1013.4 |
| 20260506040814 | 49 | 141 | 0.0 | 0.0 | 0.00 | 1.02 | 1.02 | 95 | 1013.6 |
| 20260506040312 | 49 | 153 | 0.0 | 0.0 | 0.00 | 1.02 | 1.02 | 95 | 1013.6 |
| 20260506035808 | 49 | 167 | 0.0 | 0.0 | 0.00 | 1.02 | 1.02 | 95 | 1013.3 |
| 20260506035306 | 49 | 157 | 0.0 | 0.0 | 0.00 | 1.02 | 1.02 | 95 | 1013.4 |
| 20260506034802 | 49 | 175 | 0.0 | 1.0 | 0.00 | 1.02 | 1.02 | 95 | 1013.5 |
| 20260506034259 | 49 | 145 | 0.0 | 0.0 | 0.00 | 1.02 | 1.02 | 95 | 1013.3 |
| 20260506033756 | 49 | 137 | 0.0 | 0.0 | 0.00 | 1.02 | 1.02 | 95 | 1013.2 |
| 20260506033253 | 49 | 144 | 0.0 | 0.0 | 0.00 | 1.02 | 1.02 | 95 | 1012.8 |
| 20260506032750 | 48 | 180 | 1.0 | 1.0 | 0.00 | 1.02 | 1.02 | 95 | 1013.0 |
| 20260506032247 | 48 | 246 | 3.0 | 3.0 | 0.00 | 1.02 | 1.02 | 95 | 1012.7 |
| 20260506031743 | 48 | 181 | 0.0 | 0.0 | 0.00 | 1.02 | 1.02 | 95 | 1012.8 |
| 20260506031241 | 48 | 181 | 0.0 | 0.0 | 0.00 | 1.02 | 1.02 | 95 | 1012.8 |
| 20260506030739 | 48 | 180 | 0.0 | 0.0 | 0.00 | 1.02 | 1.02 | 95 | 1012.8 |
| 20260506030236 | 48 | 180 | 0.0 | 0.0 | 0.00 | 1.02 | 1.02 | 95 | 1012.6 |
| 20260506025733 | 48 | 180 | 0.0 | 0.0 | 0.00 | 1.02 | 1.02 | 94 | 1012.8 |
| 20260506025230 | 48 | 180 | 0.0 | 0.0 | 0.00 | 1.02 | 1.02 | 95 | 1012.4 |
| 20260506024727 | 48 | 180 | 0.0 | 0.0 | 0.00 | 1.02 | 1.02 | 94 | 1012.3 |
| 20260506024223 | 48 | 180 | 0.0 | 0.0 | 0.00 | 1.02 | 1.02 | 94 | 1012.4 |
| 20260506023719 | 48 | 180 | 0.0 | 0.0 | 0.00 | 1.02 | 1.02 | 94 | 1012.5 |
| 20260506023217 | 48 | 180 | 0.0 | 0.0 | 0.00 | 1.02 | 1.02 | 94 | 1012.2 |
| 20260506022713 | 48 | 180 | 0.0 | 0.0 | 0.00 | 1.02 | 1.02 | 94 | 1012.1 |
| 20260506022211 | 48 | 180 | 0.0 | 0.0 | 0.00 | 1.02 | 1.02 | 93 | 1012.2 |
| 20260506021709 | 48 | 180 | 0.0 | 0.0 | 0.00 | 1.02 | 1.02 | 93 | 1012.2 |
| 20260506021206 | 48 | 180 | 0.0 | 0.0 | 0.00 | 1.02 | 1.02 | 93 | 1011.8 |
| 20260506020703 | 48 | 180 | 0.0 | 0.0 | 0.00 | 1.02 | 1.02 | 92 | 1011.7 |
| 20260506020201 | 48 | 180 | 0.0 | 0.0 | 0.00 | 1.02 | 1.02 | 92 | 1011.7 |
| 20260506015658 | 49 | 180 | 0.0 | 0.0 | 0.00 | 1.02 | 1.02 | 91 | 1011.7 |
| 20260506015155 | 49 | 180 | 0.0 | 0.0 | 0.00 | 1.02 | 1.02 | 91 | 1011.6 |
| 20260506014652 | 50 | 180 | 0.0 | 0.0 | 0.00 | 1.02 | 1.02 | 90 | 1011.6 |
| 20260506014148 | 50 | 180 | 0.0 | 0.0 | 0.00 | 1.02 | 1.02 | 89 | 1011.6 |
| 20260506013646 | 50 | 180 | 0.0 | 0.0 | 0.00 | 1.02 | 1.02 | 89 | 1011.6 |
| 20260506013143 | 51 | 181 | 0.0 | 0.0 | 0.00 | 1.02 | 1.02 | 88 | 1011.6 |
| 20260506012639 | 51 | 177 | 0.0 | 0.0 | 0.00 | 1.02 | 1.02 | 87 | 1011.8 |
| 20260506012136 | 51 | 177 | 0.0 | 0.0 | 0.00 | 1.02 | 1.02 | 86 | 1011.4 |
| 20260506011634 | 51 | 177 | 0.0 | 0.0 | 0.00 | 1.02 | 1.02 | 86 | 1011.5 |
| 20260506011130 | 51 | 177 | 0.0 | 0.0 | 0.00 | 1.02 | 1.02 | 86 | 1011.3 |
| 20260506010628 | 51 | 177 | 0.0 | 0.0 | 0.00 | 1.02 | 1.02 | 86 | 1011.2 |
| 20260506010125 | 51 | 178 | 0.0 | 0.0 | 0.00 | 1.02 | 1.02 | 86 | 1011.3 |
| 20260506005622 | 51 | 178 | 0.0 | 0.0 | 0.00 | 1.02 | 1.02 | 85 | 1011.4 |
| 20260506005118 | 51 | 178 | 1.0 | 1.0 | 0.00 | 1.02 | 1.02 | 84 | 1011.3 |
| 20260506004615 | 51 | 177 | 0.0 | 0.0 | 0.00 | 1.02 | 1.02 | 84 | 1011.1 |
| 20260506004112 | 51 | 174 | 0.0 | 0.0 | 0.00 | 1.02 | 1.02 | 83 | 1011.6 |
| 20260506003608 | 52 | 170 | 1.0 | 1.0 | 0.00 | 1.02 | 1.02 | 83 | 1011.4 |
| 20260506003104 | 52 | 163 | 0.0 | 0.0 | 0.00 | 1.02 | 1.02 | 84 | 1011.5 |
| 20260506002600 | 52 | 163 | 0.0 | 0.0 | 0.00 | 1.02 | 1.02 | 83 | 1011.1 |
| 20260506002057 | 52 | 163 | 0.0 | 0.0 | 0.00 | 1.02 | 1.02 | 82 | 1011.2 |
| 20260506001553 | 52 | 164 | 0.0 | 1.0 | 0.00 | 1.02 | 1.02 | 81 | 1010.9 |
| 20260506001050 | 52 | 162 | 0.0 | 0.0 | 0.00 | 1.02 | 1.02 | 82 | 1011.0 |
| 20260506000547 | 52 | 162 | 0.0 | 0.0 | 0.00 | 1.02 | 1.02 | 82 | 1010.8 |
| 20260506000045 | 52 | 162 | 0.0 | 0.0 | 0.00 | 1.02 | 1.02 | 81 | 1011.0 |
| 20260505235543 | 52 | 163 | 0.0 | 0.0 | 0.00 | 1.02 | 1.02 | 80 | 1010.5 |
| 20260505235039 | 52 | 166 | 0.0 | 0.0 | 0.00 | 1.02 | 1.02 | 80 | 1011.0 |
| 20260505234536 | 52 | 166 | 0.0 | 0.0 | 0.00 | 1.02 | 1.02 | 80 | 1011.1 |
| 20260505234033 | 52 | 166 | 0.0 | 0.0 | 0.00 | 1.02 | 1.02 | 81 | 1011.0 |
| 20260505233531 | 52 | 168 | 0.0 | 0.0 | 0.00 | 1.02 | 1.02 | 80 | 1011.3 |
| 20260505233028 | 52 | 170 | 0.0 | 0.0 | 0.00 | 1.02 | 1.02 | 78 | 1011.2 |
| 20260505232526 | 52 | 169 | 0.0 | 0.0 | 0.00 | 1.02 | 1.02 | 79 | 1011.2 |
| 20260505232023 | 52 | 162 | 0.0 | 0.0 | 0.00 | 1.02 | 1.02 | 81 | 1011.3 |
| 20260505231520 | 52 | 160 | 0.0 | 0.0 | 0.00 | 1.02 | 1.02 | 81 | 1011.5 |
| 20260505231019 | 52 | 162 | 0.0 | 0.0 | 0.00 | 1.02 | 1.02 | 81 | 1011.3 |
| 20260505230515 | 52 | 164 | 0.0 | 0.0 | 0.00 | 1.02 | 1.02 | 81 | 1011.0 |
| 20260505230012 | 52 | 163 | 0.0 | 0.0 | 0.00 | 1.02 | 1.02 | 81 | 1011.0 |
| 20260505225509 | 52 | 164 | 0.0 | 1.0 | 0.00 | 1.02 | 1.02 | 80 | 1011.2 |
| 20260505225005 | 52 | 186 | 1.0 | 2.0 | 0.00 | 1.02 | 1.02 | 78 | 1011.3 |
| 20260505224502 | 52 | 170 | 1.0 | 1.0 | 0.00 | 1.02 | 1.02 | 80 | 1011.2 |
| 20260505223959 | 52 | 147 | 0.0 | 0.0 | 0.00 | 1.02 | 1.02 | 81 | 1011.0 |
| 20260505223456 | 52 | 139 | 0.0 | 0.0 | 0.00 | 1.02 | 1.02 | 81 | 1011.2 |
| 20260505222952 | 52 | 139 | 0.0 | 0.0 | 0.00 | 1.02 | 1.02 | 79 | 1011.1 |
| 20260505222449 | 52 | 144 | 0.0 | 0.0 | 0.00 | 1.02 | 1.02 | 79 | 1011.3 |
| 20260505221944 | 52 | 151 | 0.0 | 0.0 | 0.00 | 1.02 | 1.02 | 79 | 1011.4 |
| 20260505221442 | 52 | 143 | 0.0 | 0.0 | 0.00 | 1.02 | 1.02 | 78 | 1011.3 |
| 20260505220939 | 52 | 136 | 0.0 | 0.0 | 0.00 | 1.02 | 1.02 | 81 | 1011.2 |
| 20260505220436 | 52 | 135 | 0.0 | 1.0 | 0.00 | 1.02 | 1.02 | 81 | 1011.1 |
| 20260505215933 | 51 | 141 | 0.0 | 0.0 | 0.00 | 1.02 | 1.02 | 80 | 1011.0 |
| 20260505215431 | 51 | 129 | 0.0 | 0.0 | 0.00 | 1.02 | 1.02 | 80 | 1011.4 |
| 20260505214929 | 51 | 132 | 0.0 | 0.0 | 0.00 | 1.02 | 1.02 | 80 | 1011.1 |
| 20260505214427 | 51 | 141 | 0.0 | 0.0 | 0.00 | 1.02 | 1.02 | 81 | 1011.1 |
| 20260505213923 | 51 | 135 | 0.0 | 0.0 | 0.00 | 1.02 | 1.02 | 81 | 1011.4 |
| 20260505213421 | 51 | 144 | 0.0 | 0.0 | 0.00 | 1.02 | 1.02 | 84 | 1011.4 |
| 20260505212917 | 51 | 143 | 0.0 | 1.0 | 0.00 | 1.02 | 1.02 | 84 | 1011.3 |
| 20260505212414 | 50 | 144 | 0.0 | 0.0 | 0.00 | 1.02 | 1.02 | 85 | 1011.3 |
| 20260505211910 | 50 | 124 | 0.0 | 1.0 | 0.00 | 1.02 | 1.02 | 84 | 1011.4 |
| 20260505211409 | 50 | 123 | 0.0 | 0.0 | 0.00 | 1.02 | 1.02 | 85 | 1011.2 |
| 20260505210904 | 50 | 135 | 0.0 | 1.0 | 0.00 | 1.02 | 1.02 | 85 | 1011.4 |
| 20260505210402 | 50 | 123 | 0.0 | 1.0 | 0.00 | 1.02 | 1.02 | 85 | 1011.5 |
| 20260505205858 | 50 | 125 | 0.0 | 1.0 | 0.00 | 1.02 | 1.02 | 84 | 1011.4 |
| 20260505205357 | 50 | 142 | 0.0 | 1.0 | 0.00 | 1.02 | 1.02 | 86 | 1011.5 |
| 20260505204853 | 50 | 117 | 0.0 | 1.0 | 0.00 | 1.02 | 1.02 | 87 | 1011.7 |
| 20260505204351 | 50 | 133 | 0.0 | 0.0 | 0.00 | 1.02 | 1.02 | 88 | 1011.5 |
| 20260505203848 | 50 | 128 | 0.0 | 0.0 | 0.00 | 1.02 | 1.02 | 88 | 1011.6 |
| 20260505203344 | 50 | 151 | 0.0 | 0.0 | 0.00 | 1.02 | 1.02 | 89 | 1011.5 |
| 20260505202841 | 49 | 150 | 0.0 | 0.0 | 0.00 | 1.02 | 1.02 | 88 | 1011.7 |
| 20260505202337 | 49 | 131 | 0.0 | 1.0 | 0.00 | 1.02 | 1.02 | 88 | 1011.5 |
| 20260505201834 | 49 | 126 | 0.0 | 0.0 | 0.00 | 1.02 | 1.02 | 88 | 1011.2 |
| 20260505201331 | 49 | 126 | 0.0 | 0.0 | 0.00 | 1.02 | 1.02 | 87 | 1011.2 |
| 20260505200830 | 49 | 129 | 0.0 | 0.0 | 0.00 | 1.02 | 1.02 | 87 | 1011.3 |
| 20260505200326 | 49 | 142 | 0.0 | 0.0 | 0.00 | 1.02 | 1.02 | 88 | 1011.4 |
| 20260505195822 | 49 | 142 | 0.0 | 1.0 | 0.00 | 1.02 | 1.02 | 88 | 1011.2 |
| 20260505195319 | 49 | 146 | 0.0 | 0.0 | 0.00 | 1.02 | 1.02 | 87 | 1011.3 |
| 20260505194816 | 49 | 146 | 0.0 | 1.0 | 0.00 | 1.02 | 1.02 | 86 | 1011.6 |
| 20260505194313 | 49 | 147 | 0.0 | 0.0 | 0.00 | 1.02 | 1.02 | 87 | 1011.7 |
| 20260505193808 | 49 | 154 | 0.0 | 0.0 | 0.00 | 1.02 | 1.02 | 87 | 1012.0 |
| 20260505193307 | 49 | 143 | 0.0 | 0.0 | 0.00 | 1.02 | 1.02 | 89 | 1011.6 |
| 20260505192804 | 49 | 142 | 0.0 | 0.0 | 0.00 | 1.02 | 1.02 | 88 | 1011.7 |
| 20260505192305 | 48 | 142 | 0.0 | 0.0 | 0.00 | 1.02 | 1.02 | 88 | 1011.6 |
| 20260505191800 | 48 | 137 | 0.0 | 0.0 | 0.00 | 1.02 | 1.02 | 89 | 1011.5 |
| 20260505191258 | 49 | 133 | 1.0 | 1.0 | 0.00 | 1.02 | 1.02 | 90 | 1011.5 |
| 20260505190754 | 49 | 143 | 0.0 | 0.0 | 0.00 | 1.02 | 1.02 | 90 | 1011.6 |
| 20260505190249 | 49 | 150 | 0.0 | 0.0 | 0.00 | 1.02 | 1.02 | 90 | 1011.5 |
| 20260505185746 | 48 | 152 | 0.0 | 0.0 | 0.00 | 1.02 | 1.02 | 91 | 1011.4 |
| 20260505185242 | 48 | 146 | 0.0 | 1.0 | 0.00 | 1.02 | 1.02 | 90 | 1011.5 |
| 20260505184738 | 48 | 131 | 0.0 | 0.0 | 0.00 | 1.02 | 1.02 | 90 | 1011.9 |
| 20260505184236 | 48 | 130 | 0.0 | 0.0 | 0.00 | 1.02 | 1.02 | 89 | 1011.8 |
| 20260505183732 | 48 | 120 | 0.0 | 0.0 | 0.00 | 1.02 | 1.02 | 90 | 1011.8 |
| 20260505183230 | 48 | 133 | 0.0 | 1.0 | 0.00 | 1.02 | 1.02 | 90 | 1011.7 |
| 20260505182726 | 48 | 128 | 0.0 | 1.0 | 0.00 | 1.02 | 1.02 | 90 | 1011.7 |
| 20260505182223 | 48 | 161 | 0.0 | 0.0 | 0.00 | 1.02 | 1.02 | 91 | 1011.8 |
| 20260505181720 | 48 | 145 | 0.0 | 0.0 | 0.00 | 1.02 | 1.02 | 91 | 1012.0 |
| 20260505181217 | 47 | 129 | 0.0 | 0.0 | 0.00 | 1.02 | 1.02 | 90 | 1012.2 |
| 20260505180714 | 47 | 121 | 1.0 | 1.0 | 0.00 | 1.02 | 1.02 | 90 | 1012.2 |
| 20260505180210 | 48 | 77 | 1.0 | 2.0 | 0.00 | 1.02 | 1.02 | 90 | 1012.4 |
| 20260505175706 | 48 | 82 | 1.0 | 2.0 | 0.00 | 1.02 | 1.02 | 91 | 1012.4 |
| 20260505175203 | 48 | 110 | 0.0 | 0.0 | 0.00 | 1.02 | 1.02 | 91 | 1012.6 |
| 20260505174659 | 48 | 101 | 0.0 | 0.0 | 0.05 | 1.02 | 1.02 | 91 | 1012.6 |
| 20260505174156 | 48 | 169 | 1.0 | 1.0 | 0.05 | 1.02 | 1.02 | 91 | 1012.4 |
| 20260505173653 | 48 | 113 | 2.0 | 2.0 | 0.00 | 1.01 | 1.01 | 90 | 1012.1 |
| 20260505173149 | 48 | 137 | 0.0 | 1.0 | 0.00 | 1.01 | 1.01 | 90 | 1012.2 |
| 20260505172647 | 48 | 96 | 1.0 | 2.0 | 0.00 | 1.01 | 1.01 | 91 | 1012.4 |
| 20260505172143 | 48 | 121 | 1.0 | 1.0 | 0.00 | 1.01 | 1.01 | 91 | 1012.2 |
| 20260505171637 | 48 | 134 | 0.0 | 0.0 | 0.00 | 1.01 | 1.01 | 92 | 1012.2 |